Simultaneous Nadir Overpasses (SNOs) Predictions

Prediction of SNOs between METOP-A and NOAA-19 Satellite Orbit:

Table of predicted SNOs for the next 14.0 days since TLE Epoch: 9/1/2017
Index Date (METOP-A) Time (METOP-A) Lat,Lon (METOP-A) SZA (METOP-A ) Date (NOAA-19) Time (NOAA-19) Lat,Lon (NOAA-19) SZA (NOAA-19 ) Distance(km) Time Diff (sec)
1 09/02/2017 22:31:02 77.59,-152.23 70.00 09/02/2017 22:29:53 77.58,-152.17 69.99 1.75 69
2 09/02/2017 23:21:44 -77.57, 15.03 110.00 09/02/2017 23:20:56 -77.59, 15.01 109.99 2.12 48
3 09/03/2017 00:12:24 77.57,-177.66 70.01 09/03/2017 00:11:54 77.56,-177.57 70.00 2.34 30
4 09/03/2017 01:03:06 -77.55, -10.40 110.00 09/03/2017 01:02:57 -77.57, -10.39 109.98 2.03 9
5 09/03/2017 01:53:46 77.55, 156.90 70.01 09/03/2017 01:53:55 77.54, 157.02 70.01 2.95 9
6 09/03/2017 02:44:28 -77.53, -35.83 109.99 09/03/2017 02:44:58 -77.55, -35.80 109.97 2.17 30
7 09/03/2017 03:35:08 77.53, 131.47 70.02 09/03/2017 03:35:56 77.52, 131.62 70.02 3.56 48
8 09/03/2017 04:25:50 -77.51, -61.26 109.99 09/03/2017 04:26:59 -77.53, -61.20 109.96 2.51 69
9 09/13/2017 16:58:50 77.61, -69.11 74.10 09/13/2017 16:57:35 77.64, -69.07 74.12 3.04 75
10 09/13/2017 17:49:32 -77.60, 98.16 105.91 09/13/2017 17:48:40 -77.64, 98.16 105.87 4.27 52
11 09/13/2017 18:40:12 77.59, -94.54 74.10 09/13/2017 18:39:36 77.62, -94.47 74.13 3.40 36
12 09/13/2017 19:30:53 -77.62, 72.92 105.86 09/13/2017 19:30:41 -77.62, 72.76 105.86 3.98 12
13 09/13/2017 20:21:33 77.61,-119.78 74.16 09/13/2017 20:21:37 77.60,-119.88 74.14 2.90 4
14 09/13/2017 21:12:15 -77.60, 47.49 105.85 09/13/2017 21:12:42 -77.60, 47.35 105.85 3.31 27
15 09/13/2017 22:02:55 77.59,-145.21 74.16 09/13/2017 22:03:38 77.58,-145.29 74.15 2.33 43
16 09/13/2017 22:53:37 -77.58, 22.06 105.85 09/13/2017 22:54:43 -77.58, 21.95 105.84 2.65 66
17 09/13/2017 23:44:25 77.23,-172.17 73.79 09/13/2017 23:45:32 77.27,-169.30 73.92 70.46 67




NCC Satellite Simultaneous Nadir Overpasses (SNOs) Prediction Service
